WJA40 CYHZ-EGKK

Flight info

Callsign WJA40
Flight time N/A
Altitude 35000
Route IGTAS DCT NOTOP DCT PORTI/M079F350 NATT GISTI/N0455F370 DCT NORLA DCT FONZU DCT ELRIP DCT OTMET
Aircraft B38M/M-SDE1FGHILORVWXY/HB1

Departure

Time 2026-05-05 01:48
Airport Halifax / Stanfield International Airport (CYHZ)

Arrival

Time N/A
Airport London Gatwick Airport (EGKK)
Time Latitude Longitude Altitude Speed Heading
2026-05-05 01:16 44.88812 -63.51414 454 ft 0 kts 260°
2026-05-05 01:33 44.88814 -63.51399 454 ft 4 kts 260°
2026-05-05 01:34 44.88819 -63.51361 454 ft 4 kts 260°
2026-05-05 01:34 44.88824 -63.51330 454 ft 4 kts 246°
2026-05-05 01:34 44.88839 -63.51305 454 ft 4 kts 199°
2026-05-05 01:34 44.88865 -63.51302 454 ft 4 kts 172°
2026-05-05 01:35 44.88874 -63.51305 454 ft 3 kts 170°
2026-05-05 01:35 44.88848 -63.51298 454 ft 4 kts 170°
2026-05-05 01:35 44.88839 -63.51295 454 ft 1 kts 170°
2026-05-05 01:43 44.88834 -63.51294 454 ft 2 kts 171°
2026-05-05 01:43 44.88797 -63.51286 454 ft 7 kts 170°
2026-05-05 01:44 44.88744 -63.51273 454 ft 8 kts 170°
2026-05-05 01:44 44.88695 -63.51237 454 ft 8 kts 114°
2026-05-05 01:44 44.88697 -63.51154 454 ft 9 kts 81°
2026-05-05 01:44 44.88708 -63.51063 454 ft 10 kts 80°
2026-05-05 01:45 44.88724 -63.50965 454 ft 11 kts 69°
2026-05-05 01:45 44.88771 -63.50879 453 ft 12 kts 39°
2026-05-05 01:45 44.88852 -63.50797 449 ft 16 kts 36°
2026-05-05 01:45 44.88945 -63.50703 448 ft 17 kts 35°
2026-05-05 01:46 44.89002 -63.50622 448 ft 10 kts 70°
2026-05-05 01:46 44.88980 -63.50536 448 ft 10 kts 127°
2026-05-05 01:46 44.88937 -63.50453 448 ft 11 kts 126°
2026-05-05 01:46 44.88888 -63.50433 451 ft 6 kts 206°
2026-05-05 01:47 44.88867 -63.50452 453 ft 2 kts 214°
2026-05-05 01:47 44.88730 -63.50587 455 ft 59 kts 215°
2026-05-05 01:47 44.88196 -63.51116 457 ft 126 kts 215°
2026-05-05 01:47 44.87336 -63.51963 543 ft 172 kts 214°
2026-05-05 01:48 44.86335 -63.53038 1178 ft 182 kts 218°
2026-05-05 01:48 44.85348 -63.54141 2045 ft 182 kts 217°
2026-05-05 01:48 44.84294 -63.55273 2564 ft 201 kts 217°
2026-05-05 01:48 44.83100 -63.56545 2923 ft 230 kts 217°
2026-05-05 01:49 44.81810 -63.57901 3777 ft 231 kts 217°
2026-05-05 01:49 44.80463 -63.59261 4402 ft 246 kts 217°
2026-05-05 01:49 44.79010 -63.60649 4884 ft 254 kts 217°
2026-05-05 01:49 44.77531 -63.62008 4990 ft 256 kts 217°
2026-05-05 01:50 44.76052 -63.63350 5759 ft 252 kts 217°
2026-05-05 01:50 44.74498 -63.64537 6461 ft 264 kts 200°
2026-05-05 01:50 44.72661 -63.64801 7302 ft 273 kts 178°
2026-05-05 01:50 44.70836 -63.63877 8034 ft 289 kts 147°
2026-05-05 01:51 44.69515 -63.61655 8881 ft 306 kts 116°
2026-05-05 01:51 44.69085 -63.58742 9751 ft 308 kts 85°
2026-05-05 01:51 44.69694 -63.55860 10325 ft 314 kts 56°
2026-05-05 01:51 44.71136 -63.53477 10727 ft 329 kts 44°
2026-05-05 01:52 44.72704 -63.51077 10990 ft 343 kts 46°
2026-05-05 01:52 44.73747 -63.49386 11183 ft 349 kts 46°
2026-05-05 01:52 44.75951 -63.45780 11501 ft 377 kts 47°
2026-05-05 01:52 44.77692 -63.42902 11759 ft 393 kts 47°
2026-05-05 01:53 44.79484 -63.39957 12329 ft 396 kts 47°
2026-05-05 01:53 44.81306 -63.37010 12911 ft 401 kts 47°
2026-05-05 01:53 44.83148 -63.34055 13525 ft 403 kts 46°
2026-05-05 01:53 44.84378 -63.32081 13876 ft 407 kts 46°
2026-05-05 01:54 44.85015 -63.31060 14080 ft 406 kts 46°
2026-05-05 01:54 44.90185 -63.22795 15694 ft 416 kts 46°
2026-05-05 01:54 44.92101 -63.19724 16214 ft 419 kts 46°
2026-05-05 01:55 44.94026 -63.16639 16746 ft 421 kts 46°
2026-05-05 01:55 44.95969 -63.13524 17233 ft 424 kts 47°
2026-05-05 01:55 44.97924 -63.10386 17722 ft 427 kts 47°
2026-05-05 01:55 44.99872 -63.07255 18203 ft 430 kts 47°
2026-05-05 01:56 45.01877 -63.04031 18681 ft 433 kts 47°
2026-05-05 01:56 45.03869 -63.00827 19146 ft 436 kts 47°
2026-05-05 01:56 45.05876 -62.97595 19581 ft 438 kts 47°
2026-05-05 01:56 45.07894 -62.94348 20006 ft 441 kts 47°
2026-05-05 01:57 45.09906 -62.91116 20379 ft 444 kts 47°
2026-05-05 01:57 45.11951 -62.87836 20790 ft 447 kts 47°
2026-05-05 01:57 45.14000 -62.84515 21226 ft 449 kts 48°
2026-05-05 01:57 45.15992 -62.81079 21601 ft 453 kts 50°
2026-05-05 01:58 45.17947 -62.77642 21995 ft 454 kts 50°
2026-05-05 01:58 45.19948 -62.74140 22265 ft 457 kts 51°
2026-05-05 01:58 45.21656 -62.70318 22637 ft 465 kts 65°
2026-05-05 01:58 45.22976 -62.66123 23112 ft 465 kts 64°
2026-05-05 01:59 45.24375 -62.61954 23557 ft 472 kts 64°
2026-05-05 01:59 45.25807 -62.57781 24004 ft 470 kts 64°
2026-05-05 01:59 45.27242 -62.53611 24246 ft 473 kts 63°
2026-05-05 01:59 45.28706 -62.49389 24535 ft 477 kts 63°
2026-05-05 02:00 45.30174 -62.45154 24916 ft 479 kts 63°
2026-05-05 02:00 45.31646 -62.40903 25170 ft 479 kts 63°
2026-05-05 02:00 45.33109 -62.36649 25347 ft 482 kts 64°
2026-05-05 02:00 45.34583 -62.32362 25475 ft 485 kts 63°
2026-05-05 02:01 45.36059 -62.28085 25756 ft 480 kts 64°
2026-05-05 02:01 45.37536 -62.23794 25880 ft 487 kts 64°
2026-05-05 02:01 45.39032 -62.19433 26143 ft 490 kts 64°
2026-05-05 02:01 45.40527 -62.15069 26450 ft 492 kts 64°
2026-05-05 02:02 45.42029 -62.10676 26712 ft 494 kts 64°
2026-05-05 02:02 45.43532 -62.06270 26991 ft 496 kts 64°
2026-05-05 02:02 45.44974 -62.01792 27182 ft 499 kts 71°
2026-05-05 02:02 45.45815 -61.97075 27511 ft 498 kts 78°
2026-05-05 02:03 45.46589 -61.92195 27663 ft 503 kts 78°
2026-05-05 02:03 45.47340 -61.87321 27951 ft 502 kts 78°
2026-05-05 02:03 45.48074 -61.82451 28241 ft 503 kts 79°
2026-05-05 02:03 45.48792 -61.77638 28547 ft 503 kts 79°
2026-05-05 02:04 45.49526 -61.72694 28875 ft 503 kts 79°
2026-05-05 02:04 45.50246 -61.67829 29236 ft 503 kts 79°
2026-05-05 02:04 45.50956 -61.63018 29596 ft 502 kts 79°
2026-05-05 02:04 45.51672 -61.58152 29928 ft 501 kts 79°
2026-05-05 02:05 45.52384 -61.53293 30227 ft 501 kts 79°
2026-05-05 02:05 45.53095 -61.48427 30517 ft 501 kts 79°
2026-05-05 02:05 45.53802 -61.43575 30811 ft 500 kts 79°
2026-05-05 02:05 45.54509 -61.38707 31084 ft 501 kts 79°
2026-05-05 02:06 45.55213 -61.33840 31342 ft 500 kts 79°
2026-05-05 02:06 45.55914 -61.28983 31587 ft 501 kts 79°
2026-05-05 02:06 45.56615 -61.24114 31860 ft 501 kts 79°
2026-05-05 02:06 45.57312 -61.19252 32103 ft 500 kts 79°
2026-05-05 02:07 45.58007 -61.14390 32316 ft 501 kts 79°
2026-05-05 02:07 45.58702 -61.09511 32578 ft 501 kts 79°
2026-05-05 02:07 45.59395 -61.04634 32795 ft 501 kts 79°
2026-05-05 02:07 45.60084 -60.99759 33009 ft 502 kts 79°
2026-05-05 02:08 45.60774 -60.94873 33236 ft 502 kts 79°
2026-05-05 02:08 45.61460 -60.89998 33455 ft 501 kts 79°
2026-05-05 02:08 45.62144 -60.85112 33653 ft 502 kts 79°
2026-05-05 02:08 45.62826 -60.80236 33850 ft 502 kts 80°
2026-05-05 02:09 45.63507 -60.75347 34054 ft 502 kts 80°
2026-05-05 02:09 45.64186 -60.70448 34237 ft 502 kts 80°
2026-05-05 02:09 45.64863 -60.65553 34433 ft 502 kts 80°
2026-05-05 02:09 45.65538 -60.60658 34636 ft 501 kts 80°
2026-05-05 02:10 45.66209 -60.55774 34759 ft 501 kts 80°
2026-05-05 02:10 45.66879 -60.50887 34759 ft 502 kts 80°
2026-05-05 02:10 45.68201 -60.41181 34754 ft 500 kts 80°
2026-05-05 02:11 45.69522 -60.31427 34753 ft 500 kts 80°
2026-05-05 02:11 45.70837 -60.21642 34748 ft 500 kts 80°
2026-05-05 02:12 45.72789 -60.06998 34748 ft 500 kts 80°
2026-05-05 02:13 45.74083 -59.97205 34747 ft 500 kts 81°
2026-05-05 02:13 45.75368 -59.87411 34736 ft 500 kts 81°
2026-05-05 02:14 45.76643 -59.77633 34738 ft 500 kts 81°
2026-05-05 02:14 45.77909 -59.67841 34747 ft 500 kts 81°
2026-05-05 02:15 45.79171 -59.58028 34741 ft 502 kts 81°
2026-05-05 02:15 45.80417 -59.48255 34737 ft 502 kts 81°
2026-05-05 02:16 45.81665 -59.38408 34734 ft 502 kts 81°
2026-05-05 02:16 45.82906 -59.28539 34742 ft 503 kts 81°
2026-05-05 02:17 45.84140 -59.18656 34749 ft 503 kts 81°
2026-05-05 02:17 45.85361 -59.08794 34759 ft 504 kts 81°
2026-05-05 02:18 45.86580 -58.98887 34757 ft 504 kts 81°
2026-05-05 02:18 45.87791 -58.88971 34762 ft 505 kts 81°
2026-05-05 02:19 45.88991 -58.79063 34762 ft 504 kts 81°
2026-05-05 02:19 45.90183 -58.69148 34768 ft 504 kts 81°
2026-05-05 02:20 45.91367 -58.59229 34769 ft 504 kts 81°
2026-05-05 02:20 45.92543 -58.49302 34769 ft 504 kts 81°
2026-05-05 02:21 45.93706 -58.39400 34776 ft 503 kts 81°
2026-05-05 02:21 45.94863 -58.29478 34775 ft 503 kts 82°
2026-05-05 02:22 45.96009 -58.19574 34774 ft 502 kts 82°
2026-05-05 02:22 45.97136 -58.09750 34777 ft 501 kts 82°
2026-05-05 02:23 45.98261 -57.99870 34779 ft 501 kts 82°
2026-05-05 02:23 45.99379 -57.89976 34784 ft 501 kts 82°
2026-05-05 02:24 46.00487 -57.80087 34783 ft 501 kts 82°
2026-05-05 02:24 46.01588 -57.70178 34787 ft 502 kts 82°
2026-05-05 02:25 46.02679 -57.60284 34790 ft 501 kts 82°
2026-05-05 02:25 46.03762 -57.50375 34782 ft 501 kts 82°
2026-05-05 02:26 46.04837 -57.40459 34786 ft 502 kts 82°
2026-05-05 02:26 46.05900 -57.30568 34782 ft 500 kts 82°
2026-05-05 02:27 46.06956 -57.20662 34786 ft 501 kts 82°
2026-05-05 02:27 46.08004 -57.10748 34785 ft 500 kts 82°
2026-05-05 02:28 46.09036 -57.00899 34780 ft 501 kts 82°
2026-05-05 02:28 46.10068 -56.90972 34776 ft 501 kts 83°
2026-05-05 02:29 46.11091 -56.81037 34774 ft 501 kts 83°
2026-05-05 02:29 46.12107 -56.71088 34768 ft 502 kts 83°
2026-05-05 02:30 46.13114 -56.61134 34769 ft 503 kts 83°
2026-05-05 02:30 46.14115 -56.51157 34765 ft 503 kts 83°
2026-05-05 02:31 46.15108 -56.41158 34767 ft 504 kts 83°
2026-05-05 02:31 46.16093 -56.31155 34767 ft 504 kts 83°
2026-05-05 02:32 46.17070 -56.21144 34770 ft 505 kts 83°
2026-05-05 02:32 46.18039 -56.11115 34768 ft 505 kts 83°
2026-05-05 02:33 46.19001 -56.01069 34766 ft 505 kts 83°
2026-05-05 02:33 46.19953 -55.91030 34766 ft 505 kts 83°
2026-05-05 02:34 46.20892 -55.81035 34772 ft 506 kts 83°
2026-05-05 02:34 46.21827 -55.70967 34759 ft 505 kts 84°
2026-05-05 02:35 46.22755 -55.60910 34768 ft 506 kts 84°
2026-05-05 02:35 46.23671 -55.50867 34767 ft 504 kts 84°
2026-05-05 02:36 46.24578 -55.40818 34766 ft 505 kts 84°
2026-05-05 02:36 46.25476 -55.30764 34761 ft 504 kts 84°
2026-05-05 02:37 46.26365 -55.20725 34760 ft 504 kts 84°
2026-05-05 02:37 46.27245 -55.10682 34761 ft 504 kts 84°
2026-05-05 02:38 46.27970 -55.02325 34755 ft 504 kts 84°
2026-05-05 02:38 46.28834 -54.92266 34771 ft 504 kts 84°
2026-05-05 02:39 46.29690 -54.82208 34772 ft 504 kts 84°
2026-05-05 02:39 46.30536 -54.72137 34764 ft 504 kts 84°
2026-05-05 02:40 46.31509 -54.60439 34759 ft 505 kts 84°
2026-05-05 02:40 46.32203 -54.51994 34760 ft 505 kts 85°
2026-05-05 02:41 46.33026 -54.41892 34757 ft 506 kts 85°
2026-05-05 02:41 46.33833 -54.31861 34758 ft 506 kts 85°
2026-05-05 02:42 46.34640 -54.21735 34758 ft 506 kts 85°
2026-05-05 02:42 46.35436 -54.11609 34761 ft 507 kts 85°
2026-05-05 02:43 46.36227 -54.01450 34753 ft 507 kts 85°
2026-05-05 02:43 46.37007 -53.91304 34745 ft 507 kts 85°
2026-05-05 02:44 46.37777 -53.81166 34748 ft 507 kts 85°
2026-05-05 02:44 46.38538 -53.71033 34744 ft 506 kts 85°
2026-05-05 02:45 46.39290 -53.60886 34752 ft 507 kts 85°
2026-05-05 02:45 46.40035 -53.50739 34749 ft 506 kts 85°
2026-05-05 02:46 46.40768 -53.40596 34748 ft 506 kts 85°
2026-05-05 02:46 46.41492 -53.30458 34730 ft 505 kts 86°
2026-05-05 02:47 46.42207 -53.20332 34706 ft 505 kts 86°
2026-05-05 02:47 46.42912 -53.10206 34691 ft 505 kts 86°
2026-05-05 02:48 46.43609 -53.00077 34695 ft 506 kts 86°
2026-05-05 02:48 46.44300 -52.89933 34699 ft 505 kts 86°
2026-05-05 02:49 46.44982 -52.79797 34702 ft 505 kts 86°
2026-05-05 02:49 46.45655 -52.69680 34700 ft 506 kts 86°
2026-05-05 02:50 46.46318 -52.59565 34716 ft 507 kts 86°
2026-05-05 02:50 46.46977 -52.49386 34723 ft 506 kts 86°
2026-05-05 02:51 46.47628 -52.39201 34733 ft 507 kts 86°
2026-05-05 02:51 46.48270 -52.29023 34731 ft 507 kts 86°
2026-05-05 02:52 46.48904 -52.18820 34727 ft 508 kts 86°
2026-05-05 02:52 46.49530 -52.08609 34734 ft 509 kts 86°
2026-05-05 02:53 46.49842 -52.03485 34726 ft 508 kts 86°
2026-05-05 02:53 46.52895 -51.88845 34711 ft 511 kts 70°
2026-05-05 02:54 46.55388 -51.79161 34741 ft 511 kts 70°
2026-05-05 02:54 46.57861 -51.69586 34744 ft 509 kts 70°
2026-05-05 02:55 46.60342 -51.59945 34739 ft 510 kts 70°
2026-05-05 02:55 46.62817 -51.50283 34736 ft 509 kts 70°
2026-05-05 02:56 46.65284 -51.40616 34738 ft 509 kts 70°
2026-05-05 02:56 46.67732 -51.30981 34738 ft 508 kts 70°
2026-05-05 02:57 46.70175 -51.21326 34740 ft 508 kts 70°
2026-05-05 02:57 46.72609 -51.11669 34740 ft 507 kts 70°
2026-05-05 02:58 46.75031 -51.02012 34740 ft 507 kts 71°
2026-05-05 02:58 46.77441 -50.92366 34736 ft 507 kts 71°
2026-05-05 02:59 46.79842 -50.82715 34741 ft 505 kts 71°
2026-05-05 02:59 46.82234 -50.73058 34744 ft 506 kts 71°
2026-05-05 03:00 46.84619 -50.63390 34739 ft 506 kts 71°
2026-05-05 03:00 46.86990 -50.53732 34735 ft 504 kts 71°
2026-05-05 03:01 46.89356 -50.44059 34744 ft 505 kts 71°
2026-05-05 03:01 46.91698 -50.34441 34737 ft 505 kts 71°
2026-05-05 03:02 46.94046 -50.24755 34739 ft 505 kts 71°
2026-05-05 03:02 46.96384 -50.15072 34747 ft 505 kts 71°
2026-05-05 03:03 46.98718 -50.05376 34750 ft 504 kts 71°
2026-05-05 03:03 47.01111 -49.95718 34752 ft 504 kts 70°
2026-05-05 03:04 47.03535 -49.86095 34751 ft 504 kts 71°
2026-05-05 03:04 47.05949 -49.76457 34750 ft 503 kts 71°
2026-05-05 03:05 47.08355 -49.66813 34746 ft 503 kts 71°
2026-05-05 03:05 47.10749 -49.57163 34753 ft 505 kts 71°
2026-05-05 03:06 47.13142 -49.47490 34745 ft 503 kts 71°
2026-05-05 03:06 47.15520 -49.37836 34758 ft 502 kts 71°
2026-05-05 03:07 47.17893 -49.28152 34756 ft 503 kts 71°
2026-05-05 03:07 47.20253 -49.18486 34757 ft 503 kts 71°
2026-05-05 03:08 47.22605 -49.08805 34756 ft 503 kts 71°
2026-05-05 03:08 47.24948 -48.99120 34756 ft 502 kts 72°
2026-05-05 03:09 47.27280 -48.89438 34757 ft 501 kts 72°
2026-05-05 03:09 47.29603 -48.79755 34761 ft 502 kts 72°
2026-05-05 03:10 47.31916 -48.70073 34753 ft 501 kts 72°
2026-05-05 03:10 47.34207 -48.60432 34758 ft 501 kts 72°
2026-05-05 03:11 47.36504 -48.50729 34769 ft 501 kts 72°
2026-05-05 03:11 47.38792 -48.41021 34766 ft 500 kts 72°
2026-05-05 03:12 47.41067 -48.31328 34766 ft 499 kts 72°
2026-05-05 03:12 47.43343 -48.21580 34768 ft 504 kts 72°
2026-05-05 03:13 47.45626 -48.11759 34780 ft 507 kts 72°
2026-05-05 03:13 47.47905 -48.01915 34784 ft 505 kts 72°
2026-05-05 03:14 47.49787 -47.93749 34787 ft 505 kts 72°
2026-05-05 03:14 47.52424 -47.82253 34782 ft 505 kts 72°
2026-05-05 03:15 47.54672 -47.72409 34787 ft 505 kts 72°
2026-05-05 03:15 47.56898 -47.62611 34788 ft 505 kts 72°
2026-05-05 03:16 47.59130 -47.52745 34784 ft 505 kts 72°
2026-05-05 03:16 47.61353 -47.42869 34788 ft 506 kts 72°
2026-05-05 03:17 47.63573 -47.32964 34793 ft 506 kts 72°
2026-05-05 03:17 47.65786 -47.23041 34797 ft 508 kts 72°
2026-05-05 03:18 47.67990 -47.13114 34794 ft 507 kts 72°
2026-05-05 03:18 47.70190 -47.03157 34794 ft 508 kts 72°
2026-05-05 03:19 47.73476 -46.88195 34798 ft 507 kts 73°
2026-05-05 03:19 47.75650 -46.78238 34794 ft 507 kts 73°
2026-05-05 03:20 47.77448 -46.69966 34798 ft 506 kts 73°
2026-05-05 03:20 47.79601 -46.60016 34794 ft 505 kts 73°
2026-05-05 03:21 47.82101 -46.48404 34754 ft 503 kts 73°
2026-05-05 03:21 47.84206 -46.38571 34722 ft 502 kts 73°
2026-05-05 03:22 47.86314 -46.28678 34716 ft 501 kts 74°
2026-05-05 03:22 47.88057 -46.20467 34721 ft 499 kts 74°
2026-05-05 03:23 47.90145 -46.10583 34721 ft 499 kts 74°
2026-05-05 03:23 47.92565 -45.99065 34722 ft 498 kts 74°
2026-05-05 03:24 47.94278 -45.90875 34722 ft 498 kts 74°
2026-05-05 03:24 47.96333 -45.81000 34715 ft 498 kts 74°
2026-05-05 03:25 47.98379 -45.71124 34733 ft 499 kts 74°
2026-05-05 03:25 48.00424 -45.61204 34727 ft 500 kts 74°
2026-05-05 03:26 48.02455 -45.51297 34732 ft 497 kts 75°
2026-05-05 03:26 48.04455 -45.41498 34734 ft 496 kts 75°
2026-05-05 03:27 48.06456 -45.31643 34733 ft 496 kts 75°
2026-05-05 03:27 48.08450 -45.21779 34741 ft 495 kts 75°
2026-05-05 03:28 48.10431 -45.11923 34729 ft 494 kts 75°
2026-05-05 03:28 48.12404 -45.02059 34733 ft 494 kts 76°
2026-05-05 03:29 48.14360 -44.92231 34739 ft 494 kts 76°
2026-05-05 03:29 48.16311 -44.82382 34740 ft 493 kts 76°
2026-05-05 03:30 48.18253 -44.72527 34740 ft 494 kts 76°
2026-05-05 03:30 48.20187 -44.62659 34736 ft 494 kts 76°
2026-05-05 03:31 48.22114 -44.52774 34747 ft 495 kts 76°
2026-05-05 03:31 48.24021 -44.42947 34740 ft 494 kts 76°
2026-05-05 03:32 48.25936 -44.33025 34745 ft 494 kts 76°
2026-05-05 03:32 48.27838 -44.23120 34748 ft 495 kts 76°
2026-05-05 03:33 48.29732 -44.13198 34747 ft 495 kts 76°
2026-05-05 03:33 48.31620 -44.03267 34746 ft 493 kts 76°
2026-05-05 03:34 48.33496 -43.93338 34752 ft 495 kts 77°
2026-05-05 03:34 48.35367 -43.83391 34758 ft 494 kts 77°
2026-05-05 03:35 48.37225 -43.73451 34759 ft 494 kts 77°
2026-05-05 03:35 48.39073 -43.63516 34758 ft 492 kts 77°
2026-05-05 03:36 48.42408 -43.45453 34762 ft 490 kts 77°
2026-05-05 03:37 48.44521 -43.33913 34771 ft 488 kts 77°
2026-05-05 03:37 48.46010 -43.25742 34764 ft 486 kts 77°
2026-05-05 03:38 48.48089 -43.14267 34768 ft 485 kts 78°
2026-05-05 03:38 48.49841 -43.04536 34769 ft 483 kts 78°
2026-05-05 03:39 48.51590 -42.94771 34777 ft 482 kts 78°
2026-05-05 03:39 48.53330 -42.85010 34774 ft 481 kts 78°
2026-05-05 03:40 48.55054 -42.75282 34776 ft 480 kts 78°
2026-05-05 03:40 48.56768 -42.65558 34777 ft 479 kts 78°
2026-05-05 03:41 48.58474 -42.55823 34784 ft 479 kts 78°
2026-05-05 03:41 48.60166 -42.46118 34785 ft 479 kts 78°
2026-05-05 03:42 48.61852 -42.36394 34787 ft 479 kts 78°
2026-05-05 03:42 48.63528 -42.26665 34782 ft 477 kts 78°
2026-05-05 03:43 48.65196 -42.16939 34792 ft 477 kts 78°
2026-05-05 03:43 48.66852 -42.07228 34797 ft 477 kts 78°
2026-05-05 03:44 48.68503 -41.97490 34795 ft 478 kts 78°
2026-05-05 03:44 48.70143 -41.87764 34788 ft 475 kts 78°
2026-05-05 03:45 48.71768 -41.78074 34798 ft 475 kts 78°
2026-05-05 03:45 48.73383 -41.68382 34795 ft 475 kts 78°
2026-05-05 03:46 48.74992 -41.58672 34811 ft 475 kts 79°
2026-05-05 03:46 48.76583 -41.49022 34810 ft 474 kts 79°
2026-05-05 03:47 48.78172 -41.39325 34847 ft 474 kts 79°
2026-05-05 03:47 48.79754 -41.29615 34879 ft 476 kts 79°
2026-05-05 03:48 48.81329 -41.19892 34909 ft 473 kts 79°
2026-05-05 03:48 48.82893 -41.10183 34953 ft 475 kts 79°
2026-05-05 03:49 48.84451 -41.00454 34978 ft 474 kts 79°
2026-05-05 03:49 48.86002 -40.90731 34998 ft 474 kts 79°
2026-05-05 03:50 48.87544 -40.81005 34993 ft 474 kts 79°
2026-05-05 03:50 48.89081 -40.71262 35001 ft 474 kts 79°
2026-05-05 03:51 48.90607 -40.61531 35014 ft 474 kts 79°
2026-05-05 03:51 48.92118 -40.51841 35010 ft 474 kts 79°
2026-05-05 03:52 48.93631 -40.42078 35012 ft 474 kts 79°
2026-05-05 03:52 48.95134 -40.32326 35012 ft 473 kts 79°
2026-05-05 03:53 48.96630 -40.22567 35020 ft 474 kts 79°
2026-05-05 03:53 48.98119 -40.12791 35019 ft 473 kts 79°
2026-05-05 03:54 48.99599 -40.03025 35024 ft 474 kts 79°
2026-05-05 03:54 49.01656 -39.93545 35046 ft 476 kts 71°
2026-05-05 03:55 49.04002 -39.84123 35023 ft 476 kts 71°
2026-05-05 03:55 49.06364 -39.74687 35025 ft 476 kts 71°
2026-05-05 03:56 49.08720 -39.65243 35036 ft 477 kts 71°
2026-05-05 03:56 49.11055 -39.55843 35031 ft 476 kts 71°
2026-05-05 03:57 49.13407 -39.46338 35036 ft 476 kts 71°
2026-05-05 03:57 49.15723 -39.36937 35037 ft 476 kts 71°
2026-05-05 03:58 49.18044 -39.27477 35039 ft 475 kts 71°
2026-05-05 03:58 49.20353 -39.18021 35045 ft 475 kts 71°
2026-05-05 03:59 49.22673 -39.08483 35048 ft 476 kts 71°
2026-05-05 03:59 49.24959 -38.99042 35045 ft 476 kts 71°
2026-05-05 04:00 49.27251 -38.89533 35049 ft 476 kts 71°
2026-05-05 04:00 49.29530 -38.80039 35054 ft 476 kts 71°
2026-05-05 04:01 49.31807 -38.70515 35049 ft 476 kts 71°
2026-05-05 04:01 49.34075 -38.60982 35055 ft 476 kts 71°
2026-05-05 04:02 49.36339 -38.51428 35054 ft 475 kts 71°
2026-05-05 04:02 49.38591 -38.41882 35055 ft 475 kts 71°
2026-05-05 04:03 49.40832 -38.32339 35065 ft 476 kts 71°
2026-05-05 04:03 49.43071 -38.22763 35065 ft 476 kts 71°
2026-05-05 04:04 49.45302 -38.13179 35069 ft 477 kts 71°
2026-05-05 04:04 49.47524 -38.03591 35068 ft 476 kts 71°
2026-05-05 04:05 49.49743 -37.93977 35074 ft 476 kts 71°
2026-05-05 04:05 49.51935 -37.84428 35069 ft 476 kts 71°
2026-05-05 04:06 49.54135 -37.74805 35070 ft 476 kts 71°
2026-05-05 04:06 49.56325 -37.65185 35069 ft 477 kts 71°
2026-05-05 04:07 49.58505 -37.55562 35080 ft 476 kts 71°
2026-05-05 04:07 49.60681 -37.45916 35084 ft 476 kts 71°
2026-05-05 04:08 49.62846 -37.36274 35083 ft 476 kts 71°
2026-05-05 04:08 49.65004 -37.26617 35088 ft 476 kts 71°
2026-05-05 04:09 49.67156 -37.16941 35082 ft 476 kts 71°
2026-05-05 04:09 49.69298 -37.07269 35095 ft 477 kts 71°
2026-05-05 04:10 49.71069 -36.99231 35075 ft 476 kts 71°
2026-05-05 04:10 49.73556 -36.87905 35070 ft 477 kts 71°
2026-05-05 04:11 49.75677 -36.78190 35073 ft 476 kts 71°
2026-05-05 04:11 49.77433 -36.70112 35072 ft 476 kts 71°
2026-05-05 04:12 49.79533 -36.60408 35090 ft 478 kts 71°
2026-05-05 04:12 49.81635 -36.50656 35076 ft 477 kts 71°
2026-05-05 04:13 49.84063 -36.39325 35082 ft 477 kts 71°
2026-05-05 04:13 49.85792 -36.31219 35083 ft 476 kts 71°
2026-05-05 04:14 49.88210 -36.19830 35086 ft 477 kts 71°
2026-05-05 04:14 49.89925 -36.11715 35088 ft 476 kts 71°
2026-05-05 04:15 49.91981 -36.01936 35086 ft 477 kts 71°
2026-05-05 04:15 49.94029 -35.92154 35097 ft 477 kts 71°
2026-05-05 04:16 49.96068 -35.82365 35095 ft 476 kts 71°
2026-05-05 04:16 49.98096 -35.72580 35086 ft 476 kts 71°
2026-05-05 04:17 50.00119 -35.62776 35099 ft 477 kts 71°
2026-05-05 04:17 50.02133 -35.52960 35101 ft 477 kts 71°
2026-05-05 04:18 50.04141 -35.43129 35103 ft 477 kts 71°
2026-05-05 04:18 50.06139 -35.33298 35100 ft 477 kts 71°
2026-05-05 04:19 50.08119 -35.23505 35099 ft 477 kts 71°
2026-05-05 04:19 50.10099 -35.13666 35101 ft 477 kts 71°
2026-05-05 04:20 50.12075 -35.03795 35102 ft 477 kts 71°
2026-05-05 04:20 50.14045 -34.93904 35109 ft 478 kts 71°
2026-05-05 04:21 50.16008 -34.83997 35109 ft 478 kts 71°
2026-05-05 04:21 50.17962 -34.74084 35109 ft 478 kts 71°
2026-05-05 04:22 50.19906 -34.64178 35114 ft 479 kts 71°
2026-05-05 04:22 50.21849 -34.54219 35108 ft 478 kts 71°
2026-05-05 04:23 50.23778 -34.44279 35110 ft 478 kts 71°
2026-05-05 04:23 50.25696 -34.34349 35114 ft 478 kts 71°
2026-05-05 04:24 50.27608 -34.24398 35120 ft 478 kts 71°
2026-05-05 04:25 50.30461 -34.09440 35167 ft 479 kts 71°
2026-05-05 04:25 50.32355 -33.99451 35190 ft 479 kts 71°
2026-05-05 04:26 50.34226 -33.89531 35191 ft 478 kts 71°
2026-05-05 04:26 50.36102 -33.79530 35189 ft 478 kts 71°
2026-05-05 04:27 50.37967 -33.69532 35192 ft 479 kts 71°
2026-05-05 04:27 50.39827 -33.59510 35196 ft 479 kts 71°
2026-05-05 04:28 50.41676 -33.49493 35203 ft 479 kts 71°
2026-05-05 04:28 50.43515 -33.39470 35202 ft 478 kts 71°
2026-05-05 04:29 50.45348 -33.29430 35199 ft 478 kts 71°
2026-05-05 04:29 50.47168 -33.19408 35202 ft 478 kts 71°
2026-05-05 04:30 50.48983 -33.09355 35200 ft 478 kts 71°
2026-05-05 04:30 50.50793 -32.99277 35198 ft 479 kts 71°
2026-05-05 04:31 50.52587 -32.89228 35215 ft 479 kts 71°
2026-05-05 04:31 50.54381 -32.79125 35208 ft 479 kts 71°
2026-05-05 04:32 50.56164 -32.69024 35210 ft 479 kts 71°
2026-05-05 04:32 50.57936 -32.58933 35212 ft 479 kts 71°
2026-05-05 04:33 50.59698 -32.48838 35210 ft 479 kts 71°
2026-05-05 04:33 50.61453 -32.38728 35210 ft 479 kts 71°
2026-05-05 04:34 50.63191 -32.28654 35216 ft 479 kts 71°
2026-05-05 04:34 50.64928 -32.18537 35222 ft 479 kts 71°
2026-05-05 04:35 50.66658 -32.08391 35217 ft 479 kts 71°
2026-05-05 04:35 50.68378 -31.98247 35219 ft 479 kts 71°
2026-05-05 04:36 50.70088 -31.88104 35219 ft 478 kts 71°
2026-05-05 04:36 50.71789 -31.77956 35220 ft 478 kts 71°
2026-05-05 04:37 50.73467 -31.67889 35225 ft 479 kts 71°
2026-05-05 04:37 50.75152 -31.57719 35218 ft 478 kts 72°
2026-05-05 04:38 50.76827 -31.47549 35232 ft 477 kts 72°
2026-05-05 04:38 50.78490 -31.37388 35230 ft 478 kts 72°
2026-05-05 04:39 50.80144 -31.27217 35229 ft 478 kts 72°
2026-05-05 04:39 50.81789 -31.17048 35233 ft 478 kts 72°
2026-05-05 04:40 50.83424 -31.06872 35227 ft 477 kts 72°
2026-05-05 04:40 50.85048 -30.96714 35229 ft 477 kts 72°
2026-05-05 04:41 50.86669 -30.86530 35232 ft 477 kts 72°
2026-05-05 04:41 50.88281 -30.76341 35227 ft 476 kts 72°
2026-05-05 04:42 50.89882 -30.66161 35236 ft 477 kts 72°
2026-05-05 04:42 50.91475 -30.55971 35237 ft 477 kts 73°
2026-05-05 04:43 50.93051 -30.45830 35238 ft 477 kts 73°
2026-05-05 04:43 50.94626 -30.35633 35237 ft 476 kts 73°
2026-05-05 04:44 50.96194 -30.25427 35238 ft 476 kts 73°
2026-05-05 04:44 50.97751 -30.15223 35238 ft 476 kts 73°
2026-05-05 04:45 50.99300 -30.05014 35239 ft 476 kts 73°
2026-05-05 04:45 51.00489 -29.98271 35229 ft 471 kts 65°
2026-05-05 04:46 51.03687 -29.85388 35229 ft 470 kts 65°
2026-05-05 04:46 51.06106 -29.75730 35244 ft 471 kts 65°
2026-05-05 04:47 51.08521 -29.66056 35248 ft 470 kts 65°
2026-05-05 04:47 51.10926 -29.56382 35247 ft 470 kts 65°
2026-05-05 04:48 51.13308 -29.46759 35253 ft 471 kts 66°
2026-05-05 04:48 51.15701 -29.37049 35247 ft 470 kts 66°
2026-05-05 04:49 51.18079 -29.27357 35248 ft 470 kts 66°
2026-05-05 04:49 51.20452 -29.17641 35246 ft 470 kts 66°
2026-05-05 04:50 51.22814 -29.07929 35248 ft 470 kts 66°
2026-05-05 04:50 51.25172 -28.98191 35248 ft 470 kts 66°
2026-05-05 04:51 51.27522 -28.88438 35250 ft 471 kts 66°
2026-05-05 04:51 51.29864 -28.78681 35248 ft 470 kts 67°
2026-05-05 04:52 51.31798 -28.70588 35251 ft 470 kts 67°
2026-05-05 04:52 51.34123 -28.60818 35262 ft 470 kts 67°
2026-05-05 04:53 51.36829 -28.49393 35262 ft 470 kts 67°
2026-05-05 04:53 51.39135 -28.39609 35265 ft 469 kts 68°
2026-05-05 04:54 51.41428 -28.29835 35257 ft 469 kts 68°
2026-05-05 04:54 51.43712 -28.20054 35264 ft 470 kts 68°
2026-05-05 04:55 51.45995 -28.10234 35256 ft 470 kts 68°
2026-05-05 04:55 51.48269 -28.00408 35263 ft 470 kts 68°
2026-05-05 04:56 51.50526 -27.90604 35274 ft 467 kts 68°
2026-05-05 04:56 51.52392 -27.82472 35265 ft 467 kts 69°
2026-05-05 04:57 51.54633 -27.72660 35271 ft 468 kts 69°
2026-05-05 04:57 51.57244 -27.61172 35267 ft 468 kts 69°
2026-05-05 04:58 51.59097 -27.52979 35262 ft 469 kts 69°
2026-05-05 04:58 51.61681 -27.41504 35262 ft 469 kts 69°
2026-05-05 04:59 51.63536 -27.33221 35273 ft 469 kts 69°
2026-05-05 04:59 51.65739 -27.23347 35265 ft 469 kts 69°
2026-05-05 05:00 51.67940 -27.13436 35273 ft 470 kts 69°
2026-05-05 05:00 51.70115 -27.03597 35273 ft 469 kts 69°
2026-05-05 05:01 51.72298 -26.93668 35299 ft 470 kts 69°
2026-05-05 05:01 51.74473 -26.83732 35331 ft 470 kts 70°
2026-05-05 05:02 51.76642 -26.73776 35358 ft 470 kts 70°
2026-05-05 05:02 51.78799 -26.63823 35365 ft 470 kts 70°
2026-05-05 05:03 51.80951 -26.53847 35361 ft 470 kts 70°
2026-05-05 05:03 51.83095 -26.43857 35353 ft 470 kts 70°
2026-05-05 05:04 51.85229 -26.33873 35350 ft 470 kts 70°
2026-05-05 05:04 51.87358 -26.23860 35360 ft 472 kts 70°
2026-05-05 05:05 51.89481 -26.13822 35363 ft 470 kts 70°
2026-05-05 05:05 51.91591 -26.03798 35354 ft 471 kts 70°
2026-05-05 05:06 51.93681 -25.93819 35358 ft 471 kts 71°
2026-05-05 05:06 51.95779 -25.83752 35349 ft 471 kts 71°
2026-05-05 05:07 51.97868 -25.73674 35362 ft 471 kts 71°
2026-05-05 05:07 51.99942 -25.63624 35361 ft 471 kts 71°
2026-05-05 05:08 52.02012 -25.53539 35363 ft 471 kts 71°
2026-05-05 05:08 52.04074 -25.43438 35351 ft 471 kts 71°
2026-05-05 05:09 52.06128 -25.33333 35364 ft 471 kts 71°
2026-05-05 05:09 52.08169 -25.23231 35344 ft 470 kts 71°
2026-05-05 05:10 52.10202 -25.13127 35349 ft 470 kts 71°
2026-05-05 05:10 52.12224 -25.03014 35342 ft 470 kts 71°
2026-05-05 05:11 52.13560 -24.96309 35320 ft 470 kts 71°
2026-05-05 05:11 52.16231 -24.82840 35313 ft 471 kts 71°
2026-05-05 05:12 52.18227 -24.72698 35290 ft 469 kts 71°
2026-05-05 05:12 52.20216 -24.62542 35302 ft 470 kts 72°
2026-05-05 05:13 52.22194 -24.52394 35294 ft 470 kts 72°
2026-05-05 05:13 52.24164 -24.42232 35296 ft 470 kts 72°
2026-05-05 05:14 52.26125 -24.32062 35296 ft 470 kts 72°
2026-05-05 05:14 52.28078 -24.21880 35293 ft 470 kts 72°
2026-05-05 05:15 52.30021 -24.11692 35292 ft 470 kts 72°
2026-05-05 05:15 52.31957 -24.01488 35295 ft 470 kts 72°
2026-05-05 05:16 52.33882 -23.91289 35292 ft 470 kts 72°
2026-05-05 05:16 52.35800 -23.81071 35292 ft 469 kts 72°
2026-05-05 05:17 52.37707 -23.70855 35295 ft 470 kts 72°
2026-05-05 05:17 52.39584 -23.60741 35295 ft 470 kts 72°
2026-05-05 05:18 52.41483 -23.50459 35299 ft 469 kts 72°
2026-05-05 05:18 52.43364 -23.40217 35293 ft 470 kts 72°
2026-05-05 05:19 52.45234 -23.29973 35292 ft 469 kts 73°
2026-05-05 05:19 52.47098 -23.19704 35293 ft 469 kts 73°
2026-05-05 05:20 52.48951 -23.09443 35294 ft 469 kts 73°
2026-05-05 05:20 52.50796 -22.99168 35292 ft 469 kts 73°
2026-05-05 05:21 52.52630 -22.88893 35297 ft 469 kts 73°
2026-05-05 05:21 52.54453 -22.78623 35292 ft 468 kts 73°
2026-05-05 05:22 52.56257 -22.68403 35298 ft 468 kts 73°
2026-05-05 05:22 52.58061 -22.58124 35295 ft 468 kts 73°
2026-05-05 05:23 52.59857 -22.47829 35281 ft 468 kts 73°
2026-05-05 05:23 52.61642 -22.37537 35274 ft 468 kts 73°
2026-05-05 05:24 52.63415 -22.27259 35270 ft 467 kts 73°
2026-05-05 05:24 52.65178 -22.16971 35276 ft 467 kts 73°
2026-05-05 05:25 52.66924 -22.06729 35260 ft 467 kts 73°
2026-05-05 05:25 52.68680 -21.96359 35237 ft 467 kts 73°
2026-05-05 05:26 52.70409 -21.86107 35240 ft 467 kts 74°
2026-05-05 05:26 52.72133 -21.75806 35218 ft 466 kts 74°
2026-05-05 05:27 52.73853 -21.65476 35186 ft 467 kts 74°
2026-05-05 05:27 52.76413 -21.49976 35175 ft 467 kts 74°
2026-05-05 05:28 52.78110 -21.39624 35173 ft 466 kts 74°
2026-05-05 05:28 52.79793 -21.29295 35171 ft 466 kts 74°
2026-05-05 05:29 52.81472 -21.18930 35256 ft 468 kts 74°
2026-05-05 05:29 52.82309 -21.13741 35546 ft 467 kts 74°
2026-05-05 05:29 52.83140 -21.08566 35778 ft 465 kts 74°
2026-05-05 05:30 52.83972 -21.03384 35952 ft 467 kts 74°
2026-05-05 05:30 52.84798 -20.98201 36200 ft 466 kts 75°
2026-05-05 05:30 52.85627 -20.93016 36407 ft 467 kts 74°
2026-05-05 05:30 52.86460 -20.87807 36616 ft 467 kts 75°
2026-05-05 05:31 52.87281 -20.82625 36863 ft 465 kts 75°
2026-05-05 05:31 52.88097 -20.77458 37117 ft 463 kts 75°
2026-05-05 05:31 52.88911 -20.72298 37294 ft 462 kts 75°
2026-05-05 05:31 52.89718 -20.67162 37289 ft 460 kts 75°
2026-05-05 05:32 52.91316 -20.56958 37176 ft 456 kts 75°
2026-05-05 05:32 52.92900 -20.46778 37180 ft 459 kts 75°
2026-05-05 05:33 52.94482 -20.36551 37156 ft 456 kts 75°
2026-05-05 05:33 52.96051 -20.26347 37169 ft 457 kts 75°
2026-05-05 05:34 52.97612 -20.16141 37164 ft 457 kts 75°
2026-05-05 05:34 52.99165 -20.05924 37160 ft 456 kts 75°
2026-05-05 05:35 53.00092 -19.95539 37180 ft 456 kts 89°
2026-05-05 05:35 53.00303 -19.85005 37144 ft 456 kts 87°
2026-05-05 05:36 53.00508 -19.74467 37168 ft 458 kts 88°
2026-05-05 05:36 53.00703 -19.63909 37164 ft 457 kts 88°
2026-05-05 05:37 53.00887 -19.53345 37164 ft 457 kts 88°
2026-05-05 05:37 53.01063 -19.42778 37168 ft 457 kts 88°
2026-05-05 05:38 53.01228 -19.32289 37167 ft 457 kts 88°
2026-05-05 05:38 53.01385 -19.21725 37164 ft 456 kts 88°
2026-05-05 05:39 53.01532 -19.11180 37167 ft 457 kts 88°
2026-05-05 05:39 53.01670 -19.00618 37168 ft 457 kts 88°
2026-05-05 05:40 53.01799 -18.90070 37167 ft 457 kts 88°
2026-05-05 05:40 53.01918 -18.79509 37164 ft 456 kts 88°
2026-05-05 05:41 53.02011 -18.70738 37155 ft 457 kts 88°
2026-05-05 05:41 53.02129 -18.58418 37156 ft 456 kts 88°
2026-05-05 05:42 53.02220 -18.47904 37160 ft 456 kts 89°
2026-05-05 05:42 53.02302 -18.37348 37156 ft 457 kts 89°
2026-05-05 05:43 53.02363 -18.28582 37158 ft 456 kts 89°
2026-05-05 05:43 53.02428 -18.18046 37153 ft 456 kts 89°
2026-05-05 05:44 53.02483 -18.07514 37156 ft 457 kts 89°
2026-05-05 05:44 53.02530 -17.96989 37157 ft 456 kts 89°
2026-05-05 05:45 53.02566 -17.86447 37157 ft 456 kts 89°
2026-05-05 05:45 53.02594 -17.75922 37157 ft 456 kts 89°
2026-05-05 05:46 53.02612 -17.65407 37155 ft 456 kts 89°
2026-05-05 05:46 53.02621 -17.54872 37150 ft 456 kts 89°
2026-05-05 05:47 53.02621 -17.44344 37144 ft 455 kts 89°
2026-05-05 05:47 53.02612 -17.33814 37149 ft 454 kts 89°
2026-05-05 05:48 53.02592 -17.23320 37149 ft 456 kts 89°
2026-05-05 05:48 53.02564 -17.12825 37145 ft 455 kts 90°
2026-05-05 05:49 53.02527 -17.02376 37147 ft 456 kts 90°
2026-05-05 05:49 53.02480 -16.91816 37147 ft 455 kts 90°
2026-05-05 05:50 53.02424 -16.81356 37145 ft 456 kts 90°
2026-05-05 05:50 53.02359 -16.70840 37146 ft 455 kts 90°
2026-05-05 05:51 53.02285 -16.60314 37146 ft 456 kts 90°
2026-05-05 05:51 53.02201 -16.49789 37144 ft 456 kts 90°
2026-05-05 05:52 53.02108 -16.39280 37136 ft 455 kts 90°
2026-05-05 05:52 53.02006 -16.28758 37141 ft 455 kts 90°
2026-05-05 05:53 53.01894 -16.18255 37139 ft 455 kts 90°
2026-05-05 05:53 53.01773 -16.07751 37137 ft 455 kts 90°
2026-05-05 05:54 53.01643 -15.97235 37136 ft 455 kts 90°
2026-05-05 05:54 53.01504 -15.86728 37139 ft 455 kts 91°
2026-05-05 05:55 53.01356 -15.76224 37137 ft 455 kts 91°
2026-05-05 05:55 53.01199 -15.65767 37135 ft 455 kts 91°
2026-05-05 05:56 53.01032 -15.55268 37139 ft 455 kts 91°
2026-05-05 05:56 53.00856 -15.44753 37138 ft 457 kts 91°
2026-05-05 05:57 53.00675 -15.34230 37133 ft 455 kts 91°
2026-05-05 05:57 53.00483 -15.23710 37140 ft 455 kts 91°
2026-05-05 05:58 53.00285 -15.13239 37129 ft 455 kts 91°
2026-05-05 05:58 53.00076 -15.02732 37126 ft 455 kts 91°
2026-05-05 05:59 53.00093 -14.92234 37134 ft 455 kts 89°
2026-05-05 05:59 53.00120 -14.81743 37129 ft 454 kts 89°
2026-05-05 06:00 53.00136 -14.71253 37128 ft 454 kts 89°
2026-05-05 06:00 53.00142 -14.60840 37128 ft 454 kts 89°
2026-05-05 06:01 53.00139 -14.50354 37131 ft 454 kts 89°
2026-05-05 06:01 53.00127 -14.39875 37126 ft 453 kts 89°
2026-05-05 06:02 53.00106 -14.29381 37129 ft 454 kts 89°
2026-05-05 06:02 53.00076 -14.18910 37129 ft 454 kts 89°
2026-05-05 06:03 53.00037 -14.08416 37130 ft 455 kts 90°
2026-05-05 06:03 52.99641 -13.97990 37108 ft 453 kts 105°
2026-05-05 06:04 52.98048 -13.87860 37110 ft 454 kts 104°
2026-05-05 06:04 52.96446 -13.77703 37129 ft 456 kts 104°
2026-05-05 06:05 52.94816 -13.67554 37119 ft 456 kts 104°
2026-05-05 06:05 52.93175 -13.57417 37116 ft 455 kts 104°
2026-05-05 06:06 52.91528 -13.47298 37120 ft 455 kts 104°
2026-05-05 06:06 52.89871 -13.37181 37122 ft 455 kts 104°
2026-05-05 06:07 52.88207 -13.27088 37121 ft 454 kts 105°
2026-05-05 06:07 52.86531 -13.16980 37118 ft 455 kts 105°
2026-05-05 06:08 52.84852 -13.06897 37118 ft 455 kts 105°
2026-05-05 06:08 52.83189 -12.96984 37120 ft 454 kts 105°
2026-05-05 06:09 52.81466 -12.86766 37122 ft 454 kts 105°
2026-05-05 06:09 52.79764 -12.76731 37116 ft 453 kts 105°
2026-05-05 06:10 52.78055 -12.66712 37118 ft 454 kts 105°
2026-05-05 06:10 52.76334 -12.56682 37118 ft 453 kts 105°
2026-05-05 06:11 52.74605 -12.46666 37122 ft 453 kts 105°
2026-05-05 06:11 52.72881 -12.36730 37120 ft 454 kts 105°
2026-05-05 06:12 52.72011 -12.31743 37119 ft 454 kts 105°
2026-05-05 06:12 52.69497 -12.17393 37130 ft 454 kts 106°
2026-05-05 06:13 52.67733 -12.07394 37126 ft 455 kts 106°
2026-05-05 06:13 52.65959 -11.97391 37130 ft 455 kts 106°
2026-05-05 06:14 52.64181 -11.87430 37125 ft 454 kts 106°
2026-05-05 06:14 52.62394 -11.77460 37129 ft 453 kts 106°
2026-05-05 06:15 52.60598 -11.67504 37129 ft 454 kts 106°
2026-05-05 06:15 52.58794 -11.57559 37126 ft 452 kts 106°
2026-05-05 06:16 52.56988 -11.47650 37134 ft 454 kts 106°
2026-05-05 06:16 52.55476 -11.39401 37126 ft 453 kts 106°
2026-05-05 06:17 52.53341 -11.27810 37127 ft 453 kts 107°
2026-05-05 06:17 52.51507 -11.17915 37127 ft 453 kts 107°
2026-05-05 06:18 52.49667 -11.08040 37129 ft 453 kts 107°
2026-05-05 06:18 52.47818 -10.98166 37126 ft 453 kts 107°
2026-05-05 06:19 52.45973 -10.88365 37129 ft 453 kts 107°
2026-05-05 06:19 52.44110 -10.78523 37126 ft 452 kts 107°
2026-05-05 06:20 52.42244 -10.68710 37131 ft 452 kts 107°
2026-05-05 06:20 52.40364 -10.58876 37132 ft 451 kts 107°
2026-05-05 06:21 52.38480 -10.49079 37129 ft 452 kts 107°
2026-05-05 06:21 52.36590 -10.39296 37129 ft 451 kts 107°
2026-05-05 06:22 52.34689 -10.29509 37128 ft 451 kts 107°
2026-05-05 06:22 52.32780 -10.19730 37128 ft 451 kts 107°
2026-05-05 06:23 52.30861 -10.09947 37125 ft 451 kts 108°
2026-05-05 06:23 52.28940 -10.00205 37130 ft 451 kts 108°
2026-05-05 06:24 52.27011 -9.90475 37130 ft 450 kts 108°
2026-05-05 06:24 52.25072 -9.80740 37130 ft 450 kts 108°
2026-05-05 06:25 52.23127 -9.71020 37130 ft 450 kts 108°
2026-05-05 06:25 52.21176 -9.61322 37126 ft 450 kts 108°
2026-05-05 06:26 52.19210 -9.51599 37130 ft 451 kts 108°
2026-05-05 06:26 52.17255 -9.41976 37130 ft 450 kts 108°
2026-05-05 06:27 52.14285 -9.27447 37130 ft 450 kts 108°
2026-05-05 06:28 52.12296 -9.17774 37131 ft 450 kts 108°
2026-05-05 06:28 52.10299 -9.08113 37128 ft 450 kts 108°
2026-05-05 06:29 52.08297 -8.98472 37121 ft 450 kts 108°
2026-05-05 06:29 52.06292 -8.88865 37119 ft 449 kts 108°
2026-05-05 06:30 52.04278 -8.79258 37114 ft 449 kts 108°
2026-05-05 06:30 52.02255 -8.69657 37111 ft 449 kts 108°
2026-05-05 06:31 52.00224 -8.60063 37104 ft 449 kts 108°
2026-05-05 06:31 51.98189 -8.50493 37100 ft 449 kts 108°
2026-05-05 06:32 51.96164 -8.41018 37094 ft 448 kts 108°
2026-05-05 06:32 51.94118 -8.31489 37099 ft 447 kts 108°
2026-05-05 06:33 51.92067 -8.21977 37094 ft 447 kts 109°
2026-05-05 06:33 51.90005 -8.12463 37096 ft 447 kts 109°
2026-05-05 06:34 51.87942 -8.02985 37099 ft 447 kts 109°
2026-05-05 06:34 51.85867 -7.93496 37102 ft 447 kts 109°
2026-05-05 06:35 51.83779 -7.83990 37106 ft 448 kts 109°
2026-05-05 06:35 51.81690 -7.74529 37101 ft 448 kts 109°
2026-05-05 06:36 51.79593 -7.65071 37102 ft 446 kts 109°
2026-05-05 06:36 51.77495 -7.55647 37079 ft 446 kts 109°
2026-05-05 06:37 51.75385 -7.46205 37095 ft 448 kts 109°
2026-05-05 06:37 51.73281 -7.36830 37097 ft 447 kts 109°
2026-05-05 06:38 51.71158 -7.27406 37100 ft 447 kts 109°
2026-05-05 06:38 51.69029 -7.17999 37098 ft 446 kts 109°
2026-05-05 06:39 51.66892 -7.08598 37076 ft 446 kts 109°
2026-05-05 06:39 51.64749 -6.99204 37081 ft 447 kts 109°
2026-05-05 06:40 51.62600 -6.89829 37081 ft 446 kts 110°
2026-05-05 06:40 51.60263 -6.80572 37078 ft 447 kts 111°
2026-05-05 06:41 51.57916 -6.71308 37077 ft 447 kts 111°
2026-05-05 06:41 51.55577 -6.62074 37069 ft 446 kts 111°
2026-05-05 06:42 51.53235 -6.52864 37076 ft 446 kts 111°
2026-05-05 06:42 51.50882 -6.43644 37073 ft 446 kts 111°
2026-05-05 06:43 51.48523 -6.34442 37062 ft 446 kts 112°
2026-05-05 06:43 51.46153 -6.25231 37039 ft 445 kts 112°
2026-05-05 06:44 51.43804 -6.16141 37019 ft 446 kts 112°
2026-05-05 06:44 51.41425 -6.06972 37020 ft 446 kts 112°
2026-05-05 06:45 51.39035 -5.97798 37018 ft 445 kts 112°
2026-05-05 06:45 51.37047 -5.90189 37017 ft 445 kts 112°
2026-05-05 06:46 51.34651 -5.81061 37022 ft 446 kts 112°
2026-05-05 06:46 51.31835 -5.70379 37027 ft 446 kts 112°
2026-05-05 06:47 51.29416 -5.61241 37023 ft 446 kts 112°
2026-05-05 06:47 51.29007 -5.59698 37022 ft 446 kts 112°